Location: ??
(35.1714°N, 128.2806°E)
Time: 15:41:17
(UTC+00:00)

Cosmos 1892 Rocket - Pass Details

Date: 29 October 2020
Orbit: 607 x 632 km, 82.5° (Epoch: 30 November)

Event Time Altitude Azimuth Distance (km) Brightness Sun altitude
Rises 20:21:03 0° 197° (SSW) 2,852 6.8 -17.9°
Reaches altitude 10° 20:23:17 10° 202° (SSW) 1,955 5.9 -17.5°
Maximum altitude 20:27:30 51° 279° (W) 771 3.6 -16.6°
Drops below altitude 10° 20:31:46 10° 356° (N) 1,981 6.0 -15.7°
Sets 20:34:04 0° 1° (N) 2,894 6.9 -15.3°
